San Jose, Costa Rica

2:21 PM CST on April 19, 2018 (GMT -0600)
Juan Santamaria International

Weather History for MROC - May, 2013

Change the Weather History Date:

Saturday, May 4, 2013

  Actual Average Record
Temperature  
Mean Temperature 74 °F -  
Max Temperature 81 °F 81 °F 89 °F (2001)
Min Temperature 66 °F 65 °F 60 °F (2008)
Cooling Degree Days 8    
Growing Degree Days 24 (Base 50)    
Moisture  
Dew Point 60 °F    
Average Humidity 64    
Maximum Humidity 94    
Minimum Humidity 34    
Precipitation  
Precipitation 0.00 in 0.35 in - ()
Sea Level Pressure  
Sea Level Pressure 29.97 in    
Wind  
Wind Speed 8 mph ()    
Max Wind Speed 20 mph    
Max Gust Speed 26 mph    
Visibility 7.1 miles    
Events Fog    
Averages and records for this station are not official NWS values.
T = Trace of Precipitation, MM = Missing Value Source: Averaged Metar Reports

Daily Weather History Graph

Daily Weather History Graph

Search for Another Location

Airport or City:

Astronomy

May. 04, 2013 Rise Set
Actual Time 5:18 AM CST 5:48 PM CST
Civil Twilight 4:56 AM CST 6:10 PM CST
Nautical Twilight 4:30 AM CST 6:36 PM CST
Astronomical Twilight 4:04 AM CST 7:02 PM CST
Moon 1:19 AM CST (5/4) 1:37 PM CST (5/4)
Length of Visible Light 13h 14m
Length of Day
12h 30m
Waning Crescent, 26% of the Moon is Illuminated
May 4
Waning Crescent
May 9
New
May 17
First Quarter
May 24
Full
May 31
Last Quarter

Hourly Weather History & Observations

Time (CST) Temp. Heat Index Dew Point Humidity Pressure Visibility Wind Dir Wind Speed Gust Speed Precip Events Conditions
12:00 AM 70 °F - 65 °F 80% 29.85 in 12 mi SW 4.6 mph - -   Scattered Clouds
12:00 AM 69.8 °F - 64.4 °F 83% 30.01 in - SW 4.6 mph - N/A   Clear
1:00 AM 68.0 °F - 62.6 °F 83% 30.01 in 6.2 mi WSW 2.3 mph - N/A Fog Patches of Fog
1:20 AM 68.0 °F - 66.2 °F 94% 30.01 in 0.3 mi NW 4.6 mph - N/A Fog Fog
1:35 AM 68.0 °F - 66.2 °F 94% 30.00 in 1.2 mi NW 4.6 mph - N/A   Mostly Cloudy
2:00 AM 68.0 °F - 66.2 °F 94% 30.00 in 1.2 mi NW 11.5 mph - N/A   Mostly Cloudy
2:55 AM 68.0 °F - 64.4 °F 88% 29.97 in - North - - N/A   Scattered Clouds
3:00 AM 67 °F - 65 °F 90% 29.81 in 3 mi ESE 8.1 mph - -   Mist
3:00 AM 68.0 °F - 64.4 °F 88% 29.97 in - North - - N/A   Scattered Clouds
4:00 AM 69.8 °F - 60.8 °F 73% 29.97 in - ENE 9.2 mph - N/A   Clear
5:00 AM 69.8 °F - 59.0 °F 68% 29.99 in 6.2 mi NE 13.8 mph - N/A   Partly Cloudy
6:00 AM 70 °F - 60 °F 62% 29.85 in 12 mi East 11.5 mph - -   Scattered Clouds
6:00 AM 69.8 °F - 59.0 °F 68% 29.99 in 6.2 mi East 11.5 mph - N/A   Scattered Clouds
7:00 AM 73.4 °F - 60.8 °F 65% 30.02 in 6.2 mi ENE 6.9 mph - N/A   Scattered Clouds
8:00 AM 77.0 °F - 62.6 °F 61% 30.04 in 6.2 mi ENE 10.4 mph - N/A   Scattered Clouds
9:00 AM 79 °F - 62 °F 46% 29.85 in 12 mi East 15.0 mph - -   Partly Cloudy
9:00 AM 78.8 °F - 62.6 °F 57% 30.04 in 6.2 mi East 15.0 mph - N/A   Scattered Clouds
10:00 AM 77.0 °F - 62.6 °F 61% 30.04 in 6.2 mi ESE 13.8 mph - N/A   Mostly Cloudy
11:00 AM 78.8 °F - 57.2 °F 47% 30.03 in 6.2 mi East 10.4 mph - N/A   Scattered Clouds
12:00 PM 79 °F - 56 °F 34% 29.83 in 12 mi East 12.7 mph - -   Partly Cloudy
12:00 PM 78.8 °F - 55.4 °F 44% 30.01 in 6.2 mi East 12.7 mph - N/A   Scattered Clouds
1:00 PM 78.8 °F - 57.2 °F 47% 29.99 in 6.2 mi ESE 15.0 mph 26.5 mph N/A   Scattered Clouds
2:00 PM 80.6 °F 80.8 °F 57.2 °F 45% 29.98 in 6.2 mi ESE 15.0 mph 26.5 mph N/A   Scattered Clouds
3:00 PM 78 °F - 55 °F 34% 29.80 in 12 mi East 15.0 mph - -   Scattered Clouds
3:00 PM 78.8 °F - 55.4 °F 44% 29.96 in 6.2 mi East 15.0 mph - N/A   Scattered Clouds
4:00 PM 78.8 °F - 69.8 °F 74% 29.96 in 6.2 mi East 12.7 mph 24.2 mph N/A   Scattered Clouds
5:00 PM 75.2 °F - 55.4 °F 50% 29.96 in - East 13.8 mph 25.3 mph N/A   Clear
6:00 PM 73 °F - 55 °F 42% 29.85 in 12 mi East 19.6 mph - -   Partly Cloudy
6:00 PM 73.4 °F - 55.4 °F 53% 29.99 in - East 8.1 mph 19.6 mph N/A   Clear
7:00 PM 71.6 °F - 55.4 °F 57% 30.02 in - East 11.5 mph 23.0 mph N/A   Clear
8:00 PM 69.8 °F - 57.2 °F 64% 30.03 in - East 8.1 mph - N/A   Clear
9:00 PM 70 °F - 56 °F 52% 29.87 in 12 mi East 6.9 mph - -  
9:00 PM 69.8 °F - 57.2 °F 64% 30.05 in - East 6.9 mph - N/A   Clear
10:00 PM 69.8 °F - 55.4 °F 60% 30.06 in - East 4.6 mph - N/A   Clear
11:00 PM 69.8 °F - 55.4 °F 60% 30.06 in - ENE 4.6 mph - N/A   Clear